Home > Weather > Manhattan > Past weeks

Flag for USA Past Weather in Manhattan, Kansas, USA — Yesterday and Last 2 Weeks

Now
72 °F

Sunny.


Feels Like: 69 °F
Forecast: 68 / 92 °F
Wind: 7 mph from South

Location: Manhattan Municipal Airport

Current Time: Jul 27, 2016 at 8:31:52 AM

Latest Report: Jul 27, 2016 at 7:52 AM


Visibility: 10 mi

Pressure: 29.91 "Hg

Humidity: 91%

Dew Point: 69 °F

Location of ManhattanLocation

Past Weather in Manhattan — Graph

°F

Manhattan Temperature Yesterday

Maximum temperature yesterday: 88 °F (at 3:52 PM)
Minimum temperature yesterday: 66 °F (at 4:52 AM)
Average temperature yesterday: 77 °F

High & Low Weather Summary for the Past Weeks

 TemperatureHumidityPressure
High104 °F (Jul 22, 3:52 PM)97% (Jul 14, 5:00 AM)30.14 "Hg (Jul 14, 5:00 AM)
Low65 °F (Jul 15, 4:52 AM)32% (Jul 22, 2:52 PM)29.76 "Hg (Jul 23, 7:52 PM)
Average82 °F68%29.95 "Hg
* Reported Jul 12 6:52 AM — Jul 27 6:52 AM, Manhattan, Weather by CustomWeather, © 2016

Note: Actual official high and low records may vary slightly from our data, if they occured in-between our weather recording intervals... More about our weather records

Advertising

Manhattan Weather History for the Previous 24 Hours

Scroll right to see more
 ConditionsComfort  
Time TempWeatherWind HumidityBarometerVisibility
6:52 AM
Wed, Jul 27
68 °FClear.6 mph96%29.94 "Hg7 mi
5:52 AM68 °FPassing clouds.3 mph96%29.98 "Hg9 mi
4:52 AM69 °FPassing clouds.6 mph93%30.00 "Hg10 mi
3:52 AM69 °FClear.No wind93%29.98 "Hg9 mi
2:52 AM70 °FClear.No wind90%29.97 "Hg10 mi
1:52 AM71 °FClear.6 mph90%29.97 "Hg10 mi
12:52 AM71 °FClear.3 mph90%29.98 "Hg10 mi
11:52 PM
Tue, Jul 26
71 °FFog.No wind93%29.97 "Hg5 mi
10:52 PM74 °FClear.No wind85%29.96 "Hg3 mi
9:52 PM75 °FClear.No wind82%29.96 "Hg2 mi
9:03 PM80 °FScattered clouds.3 mph69%29.98 "Hg6 mi
7:52 PM84 °FSunny.6 mph65%29.94 "Hg10 mi
6:52 PM86 °FSunny.8 mph57%29.93 "Hg10 mi
5:52 PM87 °FSunny.6 mph53%29.94 "Hg10 mi
4:52 PM88 °FSunny.8 mph52%29.94 "Hg10 mi
3:52 PM88 °FSunny.5 mph55%29.96 "Hg10 mi
2:52 PM87 °FSunny.5 mph55%29.99 "Hg10 mi
1:52 PM86 °FSunny.7 mph55%30.00 "Hg10 mi
12:52 PM85 °FPassing clouds.10 mph59%30.02 "Hg10 mi
11:52 AM83 °FSunny.8 mph65%30.02 "Hg10 mi
10:52 AM81 °FSunny.8 mph69%30.03 "Hg10 mi
9:52 AM78 °FSunny.5 mph76%30.04 "Hg10 mi
8:52 AM74 °FSunny.5 mph82%30.04 "Hg10 mi
Weather by CustomWeather, © 2016

See weather overviewHow to use our weather pages